Weather History for Dumas, TX

Change the Weather History Date:

Wednesday, November 21, 2012

  Actual Average (KBGD) Record (KBGD)
Temperature  
Mean Temperature 51 °F 46 °F  
Max Temperature 69 °F 59 °F 81 °F (1966)
Min Temperature 33 °F 34 °F 19 °F (1977)
Degree Days  
Heating Degree Days 14 19  
Month to date heating degree days 308  
Since 1 July heating degree days 529  
Cooling Degree Days 0 0  
Month to date cooling degree days 0  
Year to date cooling degree days 1835  
Growing Degree Days 1 (Base 50)    
Moisture  
Dew Point 33 °F    
Average Humidity 46    
Maximum Humidity 70    
Minimum Humidity 27    
Precipitation  
Precipitation 0.00 in 0.03 in 0.81 in (1992)
Month to date precipitation 0.65  
Year to date precipitation 20.76  
Snow  
Snow 0.00 in - 4.00 in (1992)
Month to date snowfall  
Since 1 July snowfall  
Since 1 September snowfall  
Snow Depth -    
Sea Level Pressure  
Sea Level Pressure 30.11 in    
Wind  
Wind Speed 14 mph (SSW)    
Max Wind Speed 31 mph    
Max Gust Speed 37 mph    
Visibility 10 miles    
Events      
T = Trace of Precipitation, MM = Missing Value Source: NWS Daily Summary

Daily Weather History Graph

Daily Weather History Graph

Search for Another Location

Airport:

Trip Planner

Search our weather history database for the weather conditions in past years. The results will help you decide how hot, cold, wet, or windy it might be!

Date:

Astronomy

Nov. 21, 2012 Rise Set
Actual Time 7:30 AM CST 5:37 PM CST
Civil Twilight 7:03 AM CST 6:04 PM CST
Nautical Twilight 6:31 AM CST 6:35 PM CST
Astronomical Twilight 6:01 AM CST 7:06 PM CST
Moon 1:43 PM CST 1:03 AM CST
Length of Visible Light 11h 01m
Length of Day
10h 06m
First Quarter, 62% of the Moon is Illuminated
Nov 21
First Quarter
Nov 28
Full
Dec 6
Last Quarter
Dec 13
New
Dec 19
First Quarter

Hourly Weather History & Observations

Time (CST) Temp. Windchill Dew Point Humidity Pressure Visibility Wind Dir Wind Speed Gust Speed Precip Events Conditions
12:15 AM 42.8 °F 36.2 °F 30.2 °F 61% 30.21 in 10.0 mi SSW 12.7 mph - N/A   Clear
12:35 AM 42.8 °F 36.6 °F 30.2 °F 61% 30.21 in 10.0 mi SSW 11.5 mph - N/A   Clear
12:55 AM 44.6 °F 38.4 °F 30.2 °F 57% 30.21 in 10.0 mi SSW 12.7 mph - N/A   Clear
1:15 AM 42.8 °F 37.5 °F 30.2 °F 61% 30.21 in 10.0 mi SSW 9.2 mph - N/A   Clear
1:35 AM 37.4 °F 30.8 °F 28.4 °F 70% 30.21 in 10.0 mi SSW 9.2 mph - N/A   Clear
1:55 AM 37.4 °F 32.1 °F 28.4 °F 70% 30.21 in 10.0 mi SSW 6.9 mph - N/A   Clear
2:15 AM 37.4 °F 32.1 °F 26.6 °F 65% 30.21 in 10.0 mi South 6.9 mph - N/A   Clear
2:35 AM 39.2 °F 33.6 °F 26.6 °F 61% 30.21 in 10.0 mi SSW 8.1 mph - N/A   Clear
2:55 AM 39.2 °F 32.0 °F 23.0 °F 52% 30.20 in 10.0 mi SSW 11.5 mph - N/A   Clear
3:15 AM 41.0 °F 33.9 °F 24.8 °F 53% 30.20 in 10.0 mi SSW 12.7 mph - N/A   Clear
3:35 AM 41.0 °F 34.3 °F 23.0 °F 49% 30.20 in 10.0 mi SSW 11.5 mph - N/A   Clear
3:55 AM 37.4 °F 30.8 °F 23.0 °F 56% 30.20 in 10.0 mi SSW 9.2 mph - N/A   Clear
4:15 AM 35.6 °F 28.0 °F 23.0 °F 60% 30.19 in 10.0 mi SSW 10.4 mph - N/A   Clear
4:35 AM 33.8 °F 26.4 °F 23.0 °F 65% 30.19 in 10.0 mi SSW 9.2 mph - N/A   Clear
4:55 AM 41.0 °F 33.9 °F 28.4 °F 61% 30.18 in 10.0 mi SSW 12.7 mph - N/A   Clear
5:15 AM 41.0 °F 34.3 °F 26.6 °F 57% 30.18 in 10.0 mi SSW 11.5 mph - N/A   Clear
5:35 AM 41.0 °F 33.9 °F 26.6 °F 57% 30.17 in 10.0 mi SSW 12.7 mph - N/A   Clear
5:55 AM 41.0 °F 33.5 °F 23.0 °F 49% 30.18 in 10.0 mi SSW 13.8 mph - N/A   Clear
6:15 AM 41.0 °F 33.9 °F 23.0 °F 49% 30.17 in 10.0 mi SSW 12.7 mph - N/A   Clear
6:35 AM 42.8 °F 36.2 °F 24.8 °F 49% 30.17 in 10.0 mi SSW 12.7 mph - N/A   Clear
6:55 AM 44.6 °F 37.4 °F 23.0 °F 43% 30.17 in 10.0 mi SSW 16.1 mph - N/A   Clear
7:15 AM 42.8 °F 35.8 °F 23.0 °F 46% 30.17 in 10.0 mi SSW 13.8 mph - N/A   Clear
7:35 AM 41.0 °F 34.7 °F 23.0 °F 49% 30.18 in 10.0 mi SSW 10.4 mph - N/A   Clear
7:55 AM 41.0 °F 34.3 °F 23.0 °F 49% 30.18 in 10.0 mi SSW 11.5 mph - N/A   Clear
8:15 AM 42.8 °F 36.6 °F 24.8 °F 49% 30.18 in 10.0 mi SSW 11.5 mph - N/A   Clear
8:35 AM 46.4 °F 40.4 °F 24.8 °F 43% 30.19 in 10.0 mi SSW 13.8 mph - N/A   Clear
8:55 AM 50.0 °F - 26.6 °F 40% 30.19 in 10.0 mi SSW 13.8 mph - N/A   Clear
9:15 AM 51.8 °F - 26.6 °F 38% 30.18 in 10.0 mi SSW 16.1 mph - N/A   Clear
9:35 AM 53.6 °F - 24.8 °F 33% 30.18 in 10.0 mi SSW 18.4 mph - N/A   Clear
9:55 AM 55.4 °F - 26.6 °F 33% 30.19 in 10.0 mi SW 17.3 mph 23.0 mph N/A   Clear
10:15 AM 57.2 °F - 26.6 °F 31% 30.19 in 10.0 mi SW 18.4 mph 24.2 mph N/A   Clear
10:35 AM 59.0 °F - 26.6 °F 29% 30.19 in 10.0 mi SW 23.0 mph - N/A   Clear
10:55 AM 60.8 °F - 26.6 °F 27% 30.19 in 10.0 mi SW 23.0 mph - N/A   Clear
11:15 AM 60.8 °F - 26.6 °F 27% 30.17 in 10.0 mi SSW 20.7 mph - N/A   Clear
11:35 AM 60.8 °F - 26.6 °F 27% 30.17 in 10.0 mi SW 20.7 mph - N/A   Clear
11:55 AM 60.8 °F - 26.6 °F 27% 30.15 in 10.0 mi SSW 16.1 mph - N/A   Clear
12:15 PM 60.8 °F - 28.4 °F 29% 30.14 in 10.0 mi South 15.0 mph - N/A   Clear
12:35 PM 62.6 °F - 30.2 °F 30% 30.13 in 10.0 mi SSW 17.3 mph - N/A   Clear
12:55 PM 68.0 °F - 33.8 °F 28% 30.11 in 10.0 mi SW 21.9 mph 28.8 mph N/A   Clear
1:15 PM 69.8 °F - 37.4 °F 31% 30.09 in 10.0 mi SSW 25.3 mph 35.7 mph N/A   Clear
1:35 PM 68.0 °F - 37.4 °F 33% 30.08 in 10.0 mi SSW 23.0 mph 34.5 mph N/A   Clear
1:55 PM 69.8 °F - 37.4 °F 31% 30.07 in 10.0 mi SSW 24.2 mph 32.2 mph N/A   Clear
2:15 PM 69.8 °F - 37.4 °F 31% 30.07 in 10.0 mi SW 31.1 mph 36.8 mph N/A   Clear
2:35 PM 69.8 °F - 37.4 °F 31% 30.05 in 10.0 mi SSW 26.5 mph 33.4 mph N/A   Clear
2:55 PM 69.8 °F - 37.4 °F 31% 30.05 in 10.0 mi SSW 28.8 mph 34.5 mph N/A   Clear
3:15 PM 69.8 °F - 39.2 °F 33% 30.04 in 10.0 mi SSW 25.3 mph 34.5 mph N/A   Clear
3:35 PM 69.8 °F - 39.2 °F 33% 30.03 in 10.0 mi SSW 23.0 mph 32.2 mph N/A   Clear
3:55 PM 69.8 °F - 39.2 °F 33% 30.02 in 10.0 mi South 20.7 mph 26.5 mph N/A   Clear
4:15 PM 69.8 °F - 41.0 °F 35% 30.02 in 10.0 mi SSW 20.7 mph 29.9 mph N/A   Clear
4:35 PM 69.8 °F - 41.0 °F 35% 30.02 in 10.0 mi SSW 27.6 mph 31.1 mph N/A   Clear
4:55 PM 69.8 °F - 41.0 °F 35% 30.02 in 10.0 mi SSW 21.9 mph 27.6 mph N/A   Clear
5:15 PM 68.0 °F - 42.8 °F 40% 30.02 in 10.0 mi SSW 20.7 mph 27.6 mph N/A   Clear
5:35 PM 68.0 °F - 42.8 °F 40% 30.02 in 10.0 mi SSW 19.6 mph - N/A   Clear
5:55 PM 64.4 °F - 42.8 °F 45% 30.02 in 10.0 mi South 13.8 mph - N/A   Clear
6:15 PM 62.6 °F - 41.0 °F 45% 30.02 in 10.0 mi South 12.7 mph - N/A   Clear
6:35 PM 62.6 °F - 41.0 °F 45% 30.02 in 10.0 mi South 13.8 mph - N/A   Clear
6:55 PM 62.6 °F - 41.0 °F 45% 30.02 in 10.0 mi South 15.0 mph - N/A   Clear
7:15 PM 62.6 °F - 41.0 °F 45% 30.02 in 10.0 mi South 13.8 mph 20.7 mph N/A   Clear
7:35 PM 62.6 °F - 41.0 °F 45% 30.02 in 10.0 mi South 15.0 mph - N/A   Clear
7:55 PM 60.8 °F - 41.0 °F 48% 30.02 in 10.0 mi South 18.4 mph - N/A   Clear
8:15 PM 60.8 °F - 41.0 °F 48% 30.02 in 10.0 mi South 16.1 mph - N/A   Clear
8:35 PM 60.8 °F - 41.0 °F 48% 30.01 in 10.0 mi South 17.3 mph - N/A   Clear
8:55 PM 59.0 °F - 41.0 °F 51% 30.01 in 10.0 mi South 15.0 mph 21.9 mph N/A   Clear
9:15 PM 59.0 °F - 41.0 °F 51% 30.01 in 10.0 mi SSW 16.1 mph - N/A   Clear
9:35 PM 59.0 °F - 41.0 °F 51% 30.01 in 10.0 mi SSW 15.0 mph - N/A   Clear
9:55 PM 57.2 °F - 41.0 °F 55% 30.01 in 10.0 mi SSW 13.8 mph - N/A   Clear
10:15 PM 55.4 °F - 41.0 °F 58% 30.00 in 10.0 mi South 12.7 mph - N/A   Clear
10:35 PM 55.4 °F - 39.2 °F 54% 29.99 in 10.0 mi South 12.7 mph - N/A   Clear
10:55 PM 55.4 °F - 41.0 °F 58% 29.98 in 10.0 mi SSW 12.7 mph - N/A   Clear
11:15 PM 53.6 °F - 41.0 °F 62% 29.98 in 10.0 mi SSW 15.0 mph - N/A   Clear
11:35 PM 53.6 °F - 41.0 °F 62% 29.98 in 10.0 mi SSW 12.7 mph - N/A   Clear
11:55 PM 51.8 °F - 39.2 °F 62% 29.98 in 10.0 mi SSW 12.7 mph - N/A   Clear